[[{"header":{"parameterUnit":"m.s-1","parameterCategory":1,"la1":30.2992,"la2":30.254,"lo1":-89.0895,"lo2":-89.0443,"dy":0.0025,"dx":0.0025,"nx":19,"ny":19,"refTime":"2026-05-22T21:00:00:Z","depth":0,"parameterNumber":2,"parameterNumberName":"U-component_of_WINDS"},"data":[0,0,0,-4.5023,-4.5024,-4.5084,-4.5084,-4.5165,-4.5165,0,0,0,0,0,0,0,0,0,0,0,-4.5008,-4.5009,-4.5023,-4.5024,-4.5084,-4.5084,-4.5165,-4.5165,0,0,0,0,0,0,0,0,0,0,0,-4.5008,-4.5009,-4.501,-4.5025,-4.5084,-4.5084,-4.5164,-4.5118,0,0,0,0,0,0,0,0,0,0,-4.5059,-4.5048,-4.5009,-4.501,-4.5025,-4.5084,-4.5084,-4.5115,-4.512,-4.5139,0,-4.5158,0,-4.5163,-4.5171,-4.5171,0,0,0,-4.5021,-4.5044,-4.5058,-4.501,-4.5026,-4.5084,-4.5056,-4.5118,-4.5124,-4.5146,-4.5159,-4.5162,-4.5165,-4.5172,-4.5172,-4.5294,-4.5295,0,0,-4.5018,-4.502,-4.5054,-4.5062,-4.5054,-4.5054,-4.5058,-4.5122,-4.5135,-4.516,-4.5164,-4.5166,-4.5172,-4.5173,-4.5293,-4.5294,0,0,0,-4.5011,-4.5018,-4.503,-4.5059,-4.5069,-4.5056,-4.5061,-4.5132,-4.5136,-4.5165,-4.5167,-4.5173,-4.5174,-4.5293,-4.5294,-4.5329,0,0,0,-4.5008,-4.5014,-4.5029,-4.5031,-4.5068,-4.5102,-4.507,-4.5132,-4.5139,-4.5167,-4.5173,-4.5175,-4.5292,-4.5293,-4.5326,-4.5343,0,0,0,-4.5003,-4.5013,-4.5023,-4.5031,-4.5057,-4.5101,-4.5108,-4.5133,-4.514,-4.5172,-4.5175,-4.5291,-4.5293,-4.5324,-4.534,-4.5374,0,0,0,-4.4998,-4.5053,-4.5024,-4.5087,-4.5056,-4.5124,-4.5108,-4.5158,-4.5189,-4.5173,-4.5292,-4.5294,-4.5323,-4.5337,-4.5372,-4.5401,-4.5414,0,0,-4.5068,-4.5062,-4.5099,-4.5074,-4.5147,-4.5114,-4.5192,-4.5218,-4.5219,-4.5269,-4.5272,-4.5327,-4.5339,-4.5374,-4.5496,-4.5507,0,0,0,-4.5122,-4.5148,-4.5167,-4.5198,-4.5221,-4.5241,-4.5256,-4.5266,-4.5308,-4.5246,-4.5351,-4.5358,-4.5378,-4.5392,-4.5401,-4.5416,-4.5301,-4.5301,-4.5301,-4.5221,-4.5222,-4.5282,-4.529,-4.5321,-4.5337,-4.536,-4.5376,-4.5366,-4.5392,-4.5404,-4.5479,-4.5495,-4.5502,-4.5519,-4.5424,-4.5424,-4.5424,-4.5424,-4.5322,-4.5357,-4.5347,-4.5401,-4.5401,-4.5447,-4.5465,-4.5457,-4.5498,-4.5469,-4.5487,-4.545,-4.5514,-4.5528,-4.5427,-4.5426,-4.5426,-4.5426,-4.5425,-4.5383,-4.54,-4.5414,-4.5459,-4.5494,-4.5501,-4.5542,-4.5541,-4.554,-4.5558,-4.557,-4.557,-4.5566,-4.5565,-4.5566,-4.5566,-4.5566,-4.5566,-4.5566,-4.5439,-4.5453,-4.5488,-4.552,-4.554,-4.5566,-4.5586,-4.5605,-4.5626,-4.5622,-4.5622,-4.5608,-4.5522,-4.5498,-4.557,-4.557,-4.5569,-4.5569,-4.5568,-4.5532,-4.5512,-4.5566,-4.5586,-4.5624,-4.5658,-4.5659,-4.5699,-4.5716,-4.5735,-4.572,-4.5658,-4.565,-4.5642,-4.5622,-4.5722,-4.5722,-4.5722,-4.5722,-4.5581,-4.5579,-4.5634,-4.5667,-4.5699,-4.5706,-4.5766,-4.5783,-4.5796,-4.5806,-4.5793,-4.5768,-4.576,-4.5756,-4.5746,-4.5727,-4.5852,-4.5852,-4.5852,-4.5637,-4.5638,-4.5688,-4.5704,-4.5734,-4.5759,-4.5815,-4.5852,-4.5864,-4.5857,-4.5813,-4.5807,-4.5767,-4.5754,-4.574,-4.5726,-4.569,0,0]},{"header":{"parameterUnit":"m.s-1","parameterCategory":1,"la1":30.2992,"la2":30.254,"lo1":-89.0895,"lo2":-89.0443,"dy":0.0025,"dx":0.0025,"nx":19,"ny":19,"refTime":"2026-05-22T21:00:00:Z","depth":0,"parameterNumber":3,"parameterNumberName":"V-component_of_WINDS"},"data":[0,0,0,4.1453,4.1456,4.158,4.1581,4.1723,4.1724,0,0,0,0,0,0,0,0,0,0,0,4.1408,4.1409,4.1453,4.1456,4.158,4.1581,4.1723,4.1724,0,0,0,0,0,0,0,0,0,0,0,4.1408,4.1409,4.1409,4.1456,4.158,4.1581,4.1722,4.1634,0,0,0,0,0,0,0,0,0,0,4.1516,4.1467,4.1408,4.141,4.1457,4.158,4.1581,4.163,4.164,4.166,0,4.1678,0,4.1703,4.1733,4.1733,0,0,0,4.1462,4.1459,4.15,4.141,4.1458,4.158,4.1526,4.1636,4.1646,4.1673,4.168,4.1685,4.1706,4.1734,4.1734,4.1838,4.1838,0,0,4.1455,4.1425,4.1493,4.1507,4.1488,4.1522,4.1529,4.1643,4.1647,4.168,4.1689,4.1708,4.1734,4.1735,4.1838,4.1838,0,0,0,4.1431,4.142,4.1459,4.15,4.1524,4.1525,4.1534,4.1642,4.1658,4.1691,4.171,4.1735,4.1737,4.1838,4.1838,4.1822,0,0,0,4.1428,4.1407,4.1456,4.1439,4.1522,4.1585,4.1531,4.165,4.1664,4.1709,4.1735,4.1738,4.1838,4.1838,4.1822,4.1818,0,0,0,4.1403,4.1404,4.1419,4.1437,4.149,4.1584,4.1606,4.1654,4.1675,4.1733,4.1738,4.1838,4.1838,4.1822,4.1818,4.1838,0,0,0,4.1367,4.14,4.1418,4.1463,4.1489,4.1573,4.1606,4.167,4.1718,4.1736,4.1838,4.1838,4.1822,4.1818,4.1838,4.185,4.1852,0,0,4.1393,4.1402,4.1431,4.1451,4.1525,4.1557,4.1628,4.1699,4.173,4.18,4.1803,4.1822,4.1818,4.1838,4.1874,4.1875,0,0,0,4.1429,4.1449,4.1475,4.1521,4.1578,4.1626,4.169,4.1716,4.1777,4.1761,4.1835,4.1834,4.1846,4.1854,4.1855,4.1868,4.184,4.184,4.184,4.1421,4.1462,4.1513,4.1569,4.1613,4.168,4.1719,4.1766,4.1791,4.1808,4.1829,4.1846,4.1853,4.1855,4.1868,4.1839,4.1839,4.1838,4.1838,4.1463,4.1498,4.1536,4.1598,4.1641,4.1693,4.1758,4.1775,4.183,4.1833,4.1846,4.1847,4.1855,4.1869,4.1838,4.1838,4.1838,4.1838,4.1838,4.1463,4.1487,4.1521,4.1593,4.1643,4.1698,4.175,4.1786,4.182,4.1834,4.1861,4.1861,4.1866,4.1844,4.1844,4.1844,4.1844,4.1844,4.1844,4.145,4.1488,4.1528,4.1593,4.1628,4.1679,4.1747,4.1783,4.1831,4.1853,4.1853,4.1878,4.1849,4.1841,4.1845,4.1845,4.1845,4.1845,4.1845,4.1477,4.1477,4.1539,4.1575,4.1655,4.1703,4.175,4.1819,4.1853,4.1877,4.19,4.1872,4.1884,4.1883,4.1877,4.1891,4.1891,4.1891,4.1891,4.1477,4.1488,4.1561,4.1616,4.1673,4.1722,4.1791,4.1845,4.1899,4.1923,4.1926,4.1921,4.1919,4.1932,4.193,4.1925,4.1951,4.1951,4.1951,4.1497,4.1515,4.1567,4.1623,4.1689,4.1744,4.181,4.1871,4.1933,4.1954,4.1943,4.194,4.1932,4.1927,4.1948,4.1944,4.1935,0,0]}]]